Date String (YYYY-MM-DD hh:mm:ss) UTC,Instrument flags,absolute air pressure of the measurement (hPa),sample flow rate (lpm),inlet stack bypass flow (lpm),air temperature of the measurement (°C),ambient temperature measured by the external sensor (°C),aerosol sample conditioner tube jacket temperature (°C),OPC LED temperature (°C),internal box temperature (°C),relative humidity of the measurement (%),span deviation,mass concentration of particles derived from Lorenz-Mie calculation of OPC scattering (μg/m³),mass concentration of particles derived from Lorenz-Mie calculation of OPC scattering (μg/m³),mass concentration of particles derived from Lorenz-Mie calculation of OPC scattering (μg/m³)
DateTimeUTC,F1_M11,P_M11,Q1_M11,Q2_M11,T1_M11,T2_M11,T3_M11,T4_M11,T5_M11,U1_M11,ZSPAN_M11,X0_M11,X2_M11,X1_M11
2024-04-03 12:00:00,SystemResetWarning,0831.1,5.01,000.00,021.6,020.9,000.0,030.2,023.5,014.8,0000.0,0004.44,0002.47,0001.78
2024-04-03 12:01:00,SystemResetWarning,0831.1,5.00,000.00,021.6,021.0,000.0,030.2,023.5,014.8,0000.0,0004.07,0002.46,0001.80
2024-04-03 12:02:00,SystemResetWarning,0831.1,4.99,000.00,021.6,021.0,000.0,030.2,023.5,014.7,0000.0,0004.01,0002.43,0001.78
2024-04-03 12:03:00,SystemResetWarning,0831.1,4.99,000.00,021.6,020.9,000.0,030.2,023.5,014.7,0000.0,0003.95,0002.39,0001.77
2024-04-03 12:04:00,SystemResetWarning,0831.1,5.00,000.00,021.6,021.0,000.0,030.2,023.5,014.7,0000.0,0003.90,0002.36,0001.76
2024-04-03 12:05:00,SystemResetWarning,0831.1,5.02,000.00,021.6,021.0,000.0,030.2,023.4,014.7,0000.0,0003.87,0002.36,0001.75
2024-04-03 12:06:00,SystemResetWarning,0831.1,4.99,000.00,021.6,020.9,000.0,030.2,023.4,014.8,0000.0,0003.67,0002.31,0001.74
2024-04-03 12:07:00,SystemResetWarning,0831.0,4.99,000.00,021.6,020.9,000.0,030.2,023.4,014.8,0000.0,0003.49,0002.27,0001.73
2024-04-03 12:08:00,SystemResetWarning,0831.0,5.00,000.00,021.6,020.9,000.0,030.2,023.4,014.8,0000.0,0003.26,0002.24,0001.72
2024-04-03 12:09:00,SystemResetWarning,0831.0,5.01,000.00,021.6,020.9,000.0,030.2,023.4,014.8,0000.0,0003.05,0002.17,0001.71
2024-04-03 12:10:00,SystemResetWarning,0831.0,5.01,000.00,021.6,020.9,000.0,030.2,023.4,014.8,0000.0,0003.09,0002.18,0001.70
2024-04-03 12:11:00,SystemResetWarning,0831.1,4.99,000.00,021.6,020.9,000.0,030.2,023.4,014.7,0000.0,0003.06,0002.16,0001.69
2024-04-03 12:12:00,SystemResetWarning,0831.0,4.99,000.00,021.6,021.0,000.0,030.2,023.4,014.7,0000.0,0003.04,0002.15,0001.69
2024-04-03 12:13:00,SystemResetWarning,0831.0,4.99,000.00,021.6,021.0,000.0,030.2,023.5,014.7,0000.0,0003.17,0002.21,0001.70
2024-04-03 12:14:00,SystemResetWarning,0831.1,5.01,000.00,021.6,020.9,000.0,030.2,023.4,014.8,0000.0,0003.25,0002.24,0001.70
2024-04-03 12:15:00,SystemResetWarning,0831.1,5.01,000.00,021.6,020.9,000.0,030.2,023.4,015.3,0000.0,0003.24,0002.23,0001.70
2024-04-03 12:16:00,SystemResetWarning,0831.1,5.00,000.00,021.6,020.9,000.0,030.2,023.4,015.6,0000.0,0003.18,0002.19,0001.71
2024-04-03 12:17:00,SystemResetWarning,0831.0,5.00,000.00,021.6,020.9,000.0,030.1,023.4,015.2,0000.0,0003.17,0002.17,0001.71
2024-04-03 12:18:00,SystemResetWarning,0830.9,4.99,000.00,021.6,020.9,000.0,030.1,023.4,015.2,0000.0,0003.22,0002.20,0001.72
2024-04-03 12:19:00,SystemResetWarning,0830.9,4.99,000.00,021.6,020.9,000.0,030.1,023.4,015.2,0000.0,0003.28,0002.22,0001.74
2024-04-03 12:20:00,SystemResetWarning,0830.9,5.00,000.00,021.6,020.9,000.0,030.1,023.4,015.1,0000.0,0003.17,0002.17,0001.73
2024-04-03 12:21:00,SystemResetWarning,0830.9,5.00,000.00,021.6,020.8,000.0,030.1,023.4,014.9,0000.0,0003.15,0002.16,0001.73
2024-04-03 12:22:00,SystemResetWarning,0830.9,5.00,000.00,021.6,020.8,000.0,030.1,023.4,015.0,0000.0,0003.23,0002.19,0001.74
2024-04-03 12:23:00,SystemResetWarning,0830.9,5.00,000.00,021.6,020.8,000.0,030.1,023.4,015.1,0000.0,0003.51,0002.18,0001.73
2024-04-03 12:24:00,SystemResetWarning,0830.9,5.00,000.00,021.6,020.8,000.0,030.1,023.3,014.9,0000.0,0003.48,0002.14,0001.73
2024-04-03 12:25:00,SystemResetWarning,0830.9,5.00,000.00,021.5,020.8,000.0,030.1,023.3,014.9,0000.0,0003.48,0002.15,0001.72
2024-04-03 12:26:00,SystemResetWarning,0830.9,5.00,000.00,021.5,020.8,000.0,030.1,023.3,015.2,0000.0,0003.52,0002.18,0001.71
2024-04-03 12:27:00,SystemResetWarning,0830.9,5.00,000.00,021.5,020.8,000.0,030.1,023.3,015.6,0000.0,0003.53,0002.21,0001.70
2024-04-03 12:28:00,SystemResetWarning,0830.9,5.00,000.00,021.5,020.8,000.0,030.1,023.3,015.8,0000.0,0003.61,0002.24,0001.71
2024-04-03 12:29:00,SystemResetWarning,0830.9,5.01,000.00,021.5,020.8,000.0,030.1,023.3,015.9,0000.0,0003.67,0002.25,0001.72
2024-04-03 12:30:00,SystemResetWarning,0830.9,5.00,000.00,021.5,020.7,000.0,030.1,023.3,016.2,0000.0,0003.67,0002.24,0001.72
2024-04-03 12:31:00,SystemResetWarning,0830.9,5.00,000.00,021.5,020.7,000.0,030.1,023.3,016.2,0000.0,0003.70,0002.27,0001.75
2024-04-03 12:32:00,SystemResetWarning,0830.9,5.00,000.00,021.5,020.7,000.0,030.1,023.3,016.4,0000.0,0003.63,0002.26,0001.76
2024-04-03 12:33:00,SystemResetWarning,0830.9,5.00,000.00,021.5,020.7,000.0,030.1,023.2,016.5,0000.0,0003.55,0002.26,0001.78
2024-04-03 12:34:00,SystemResetWarning,0830.9,5.00,000.00,021.5,020.7,000.0,030.1,023.2,016.4,0000.0,0003.46,0002.32,0001.79
2024-04-03 12:35:00,SystemResetWarning,0830.9,5.00,000.00,021.5,020.7,000.0,030.0,023.2,016.4,0000.0,0003.52,0002.36,0001.81
2024-04-03 12:36:00,SystemResetWarning,0830.9,5.00,000.00,021.4,020.7,000.0,030.0,023.2,016.4,0000.0,0003.51,0002.35,0001.82
2024-04-03 12:37:00,SystemResetWarning,0830.9,5.00,000.00,021.4,020.7,000.0,030.0,023.2,016.6,0000.0,0003.47,0002.33,0001.83
2024-04-03 12:38:00,SystemResetWarning,0831.0,5.00,000.00,021.4,020.7,000.0,030.0,023.2,016.7,0000.0,0003.60,0002.34,0001.84
2024-04-03 12:39:00,SystemResetWarning,0830.9,5.00,000.00,021.4,020.6,000.0,030.0,023.2,016.8,0000.0,0003.72,0002.34,0001.85
2024-04-03 12:40:00,SystemResetWarning,0831.0,5.00,000.00,021.4,020.6,000.0,030.0,023.2,016.8,0000.0,0003.79,0002.33,0001.84
2024-04-03 12:41:00,SystemResetWarning,0831.0,5.00,000.00,021.4,020.6,000.0,030.0,023.2,016.9,0000.0,0003.91,0002.36,0001.85
2024-04-03 12:42:00,SystemResetWarning,0831.0,5.00,000.00,021.4,020.6,000.0,030.0,023.2,017.0,0000.0,0005.20,0002.44,0001.85
2024-04-03 12:43:00,SystemResetWarning,0831.0,5.00,000.00,021.4,020.6,000.0,030.0,023.1,017.0,0000.0,0005.29,0002.47,0001.86
2024-04-03 12:44:00,SystemResetWarning,0831.0,5.00,000.00,021.4,020.6,000.0,030.0,023.1,016.9,0000.0,0005.40,0002.50,0001.87
2024-04-03 12:45:00,SystemResetWarning,0831.0,5.00,000.00,021.4,020.6,000.0,030.0,023.1,017.0,0000.0,0005.19,0002.46,0001.88
2024-04-03 12:47:00,SystemResetWarning,0831.0,4.99,000.00,021.3,020.6,000.0,029.9,023.1,016.9,0000.0,0005.32,0002.49,0001.89
2024-04-03 12:48:00,SystemResetWarning,0831.0,5.00,000.00,021.3,020.6,000.0,029.9,023.1,016.9,0000.0,0005.37,0002.50,0001.89
2024-04-03 12:49:00,SystemResetWarning,0831.0,5.00,000.00,021.3,020.6,000.0,029.9,023.1,017.0,0000.0,0005.32,0002.50,0001.88
2024-04-03 12:50:00,SystemResetWarning,0831.1,5.00,000.00,021.3,020.5,000.0,029.9,023.1,017.0,0000.0,0005.32,0002.54,0001.89
2024-04-03 12:51:00,SystemResetWarning,0831.0,5.01,000.00,021.3,020.5,000.0,029.9,023.1,017.0,0000.0,0005.29,0002.57,0001.90
2024-04-03 12:52:00,SystemResetWarning,0831.1,5.01,000.00,021.3,020.5,000.0,029.9,023.1,017.0,0000.0,0005.15,0002.56,0001.90
2024-04-03 12:53:00,SystemResetWarning,0831.1,5.00,000.00,021.3,020.5,000.0,029.9,023.1,017.1,0000.0,0003.88,0002.49,0001.90
2024-04-03 12:54:00,SystemResetWarning,0831.1,5.00,000.00,021.3,020.5,000.0,029.9,023.1,017.1,0000.0,0003.89,0002.49,0001.90
2024-04-03 12:55:00,SystemResetWarning,0831.1,4.99,000.00,021.3,020.5,000.0,029.9,023.0,017.0,0000.0,0003.92,0002.49,0001.89
2024-04-03 12:56:00,SystemResetWarning,0831.1,4.99,000.00,021.3,020.5,000.0,029.9,023.1,017.1,0000.0,0004.06,0002.52,0001.89
2024-04-03 12:57:00,SystemResetWarning,0831.2,5.00,000.00,021.3,020.5,000.0,029.9,023.1,017.1,0000.0,0004.14,0002.54,0001.88
2024-04-03 12:58:00,SystemResetWarning,0831.1,5.01,000.00,021.2,020.5,000.0,029.8,023.1,017.2,0000.0,0004.06,0002.53,0001.88
2024-04-03 12:59:00,SystemResetWarning,0831.1,5.00,000.00,021.2,020.5,000.0,029.8,023.0,017.4,0000.0,0004.35,0002.57,0001.89
